GW3558 Weather Reports


Display with metric or nautical units.
time (UTC)temp
F
wind
direction
speed
MPH
gust
MPH
rain 1hr
in
rain 24hr
in
rain mn
in
humidity
%
barometer
mb
20260503032518 58 244 1.0 2.0 0.00 0.00 0.00 44 1021.1
20260503032017 58 244 0.0 2.0 0.00 0.00 0.00 44 1021.1
20260503031607 58 244 0.0 2.0 0.00 0.00 0.00 44 1021.1
20260503031014 58 244 0.0 1.0 0.00 0.00 0.00 44 1021.0
20260503030515 58 244 0.0 1.0 0.00 0.00 0.00 44 1021.1
20260503030052 58 244 0.0 2.0 0.00 0.00 0.00 44 1021.1
20260503025518 58 244 1.0 2.0 0.00 0.00 0.00 43 1021.1
20260503025016 59 244 0.0 1.0 0.00 0.00 0.00 44 1021.2
20260503024550 59 244 0.0 1.0 0.00 0.00 0.00 43 1021.1
20260503024019 59 244 0.0 1.0 0.00 0.00 0.00 43 1021.0
20260503023517 59 244 0.0 2.0 0.00 0.00 0.00 43 1020.9
20260503023057 60 244 0.0 2.0 0.00 0.00 0.00 43 1021.0
20260503022519 60 244 0.0 2.0 0.00 0.00 0.00 41 1020.9
20260503022025 61 244 0.0 2.0 0.00 0.00 0.00 41 1020.9
20260503021548 61 220 0.0 1.0 0.00 0.00 0.00 40 1021.0
20260503021017 62 220 0.0 0.0 0.00 0.00 0.00 38 1021.1
20260503020522 62 220 0.0 0.0 0.00 0.00 0.00 39 1021.1
20260503020051 62 220 0.0 1.0 0.00 0.00 0.00 40 1021.1
20260503015522 63 220 0.0 2.0 0.00 0.00 0.00 39 1021.1
20260503015017 63 226 0.0 3.0 0.00 0.00 0.00 39 1021.0
20260503014607 63 209 1.0 5.0 0.00 0.00 0.00 39 1021.1
20260503014028 63 219 3.0 5.0 0.00 0.00 0.00 40 1021.0
20260503013516 63 245 2.0 5.0 0.00 0.00 0.00 40 1021.1
20260503013058 63 248 2.0 7.0 0.00 0.00 0.00 39 1021.1
20260503012517 63 215 3.0 7.0 0.00 0.00 0.00 38 1021.3
20260503012015 63 214 4.0 7.0 0.00 0.00 0.00 40 1021.3
20260503011600 62 230 3.0 6.0 0.00 0.00 0.00 40 1021.4
20260503011016 62 219 3.0 6.0 0.00 0.00 0.00 41 1021.4
20260503010515 61 254 2.0 5.0 0.00 0.00 0.00 41 1021.3
20260503010048 62 198 2.0 4.0 0.00 0.00 0.00 40 1021.4
20260503005524 62 207 2.0 3.0 0.00 0.00 0.00 39 1021.4
20260503005015 62 194 1.0 3.0 0.00 0.00 0.00 40 1021.4
20260503004548 62 194 0.0 2.0 0.00 0.00 0.00 40 1021.3
20260503004017 62 194 0.0 2.0 0.00 0.00 0.00 40 1021.3
20260503003527 62 190 0.0 1.0 0.00 0.00 0.00 40 1021.4
20260503003039 62 190 0.0 2.0 0.00 0.00 0.00 40 1021.4
20260503002515 62 190 1.0 2.0 0.00 0.00 0.00 41 1021.4
20260503002014 62 44 0.0 1.0 0.00 0.00 0.00 40 1021.6
20260503001555 62 44 0.0 2.0 0.00 0.00 0.00 40 1021.6
20260503001013 62 44 0.0 2.0 0.00 0.00 0.00 40 1021.4
20260503000516 63 48 0.0 2.0 0.00 0.00 0.00 40 1021.6
20260503000035 63 76 0.0 3.0 0.00 0.00 0.00 40 1021.4
20260502235513 64 63 1.0 3.0 0.00 0.00 0.00 38 1021.6
20260502235018 64 84 1.0 4.0 0.00 0.00 0.00 37 1021.7
20260502234558 64 71 1.0 4.0 0.00 0.00 0.00 37 1021.7
20260502234019 64 83 0.0 3.0 0.00 0.00 0.00 38 1021.7
20260502233518 63 148 1.0 3.0 0.00 0.00 0.00 38 1021.8
20260502233100 63 106 0.0 3.0 0.00 0.00 0.00 39 1021.8
20260502232517 62 151 1.0 3.0 0.00 0.00 0.00 38 1021.8
20260502232013 62 93 1.0 3.0 0.00 0.00 0.00 41 1021.9
20260502231551 62 90 1.0 3.0 0.00 0.00 0.00 40 1022.0
20260502231013 62 51 0.0 2.0 0.00 0.00 0.00 38 1022.0
20260502230516 62 21 0.0 3.0 0.00 0.00 0.00 38 1021.9
20260502230109 62 63 0.0 4.0 0.00 0.00 0.00 36 1022.0
20260502225515 62 38 2.0 4.0 0.00 0.00 0.00 36 1022.1
20260502225020 63 28 1.0 4.0 0.00 0.00 0.00 35 1022.1
20260502224610 63 352 1.0 6.0 0.00 0.00 0.00 38 1022.1
20260502224015 63 51 3.0 6.0 0.00 0.00 0.00 36 1022.5
20260502223515 64 13 1.0 4.0 0.00 0.00 0.00 37 1022.5
20260502223047 65 123 2.0 5.0 0.00 0.00 0.00 35 1022.6
20260502222517 66 103 2.0 8.0 0.00 0.00 0.00 39 1022.6
20260502222016 66 43 1.0 8.0 0.00 0.00 0.00 39 1022.7
20260502221554 65 74 2.0 5.0 0.00 0.00 0.00 41 1022.6
20260502221015 64 86 2.0 5.0 0.00 0.00 0.00 38 1022.5
20260502220517 63 294 2.0 5.0 0.00 0.00 0.00 35 1022.5
20260502220359 63 202 0.0 4.0 0.00 0.00 0.00 40 1022.6
20260502215516 63 91 1.0 4.0 0.00 0.00 0.00 44 1022.6
20260502215017 62 77 1.0 4.0 0.00 0.00 0.00 46 1022.5
20260502214558 62 22 1.0 4.0 0.00 0.00 0.00 35 1022.5
20260502214015 61 360 1.0 4.0 0.00 0.00 0.00 35 1022.5
20260502213515 61 159 0.0 3.0 0.00 0.00 0.00 37 1022.7
20260502213032 61 206 1.0 3.0 0.00 0.00 0.00 40 1022.7
20260502212518 61 15 0.0 2.0 0.00 0.00 0.00 46 1022.8
20260502212027 61 57 0.0 4.0 0.00 0.00 0.00 49 1022.7
20260502211555 61 57 1.0 5.0 0.00 0.00 0.00 43 1022.8
20260502211124 61 86 2.0 5.0 0.00 0.00 0.00 47 1022.7
20260502210525 61 99 0.0 3.0 0.00 0.00 0.00 44 1022.7
20260502210116 61 98 2.0 5.0 0.00 0.00 0.00 43 1022.8
20260502205517 61 98 2.0 5.0 0.00 0.00 0.00 45 1023.0
20260502205022 62 94 3.0 6.0 0.00 0.00 0.00 42 1022.8
20260502204554 62 49 2.0 5.0 0.00 0.00 0.00 42 1022.8
20260502204118 63 92 3.0 5.0 0.00 0.00 0.00 43 1022.9
20260502203518 63 66 2.0 5.0 0.00 0.00 0.00 44 1022.8
20260502203343 63 94 3.0 7.0 0.00 0.00 0.00 44 1023.0
20260502202627 63 80 3.0 6.0 0.00 0.00 0.00 42 1022.9
20260502202015 64 95 3.0 7.0 0.00 0.00 0.00 40 1022.9
20260502201549 64 70 3.0 6.0 0.00 0.00 0.00 41 1022.9
20260502201015 63 44 2.0 6.0 0.00 0.00 0.00 42 1023.1
20260502200520 63 34 2.0 5.0 0.00 0.00 0.00 40 1023.0
20260502200043 63 63 2.0 7.0 0.00 0.00 0.00 39 1023.1
20260502195518 63 30 3.0 7.0 0.00 0.00 0.00 41 1023.0
20260502195018 63 78 3.0 6.0 0.00 0.00 0.00 44 1023.1
20260502194546 62 115 3.0 8.0 0.00 0.00 0.00 40 1023.1
20260502194021 62 101 3.0 8.0 0.00 0.00 0.00 40 1023.1
20260502193528 63 99 3.0 9.0 0.00 0.00 0.00 42 1023.0
20260502193109 64 95 5.0 10.0 0.00 0.00 0.00 39 1023.1
20260502192516 65 106 5.0 10.0 0.00 0.00 0.00 39 1023.1
20260502192016 65 87 4.0 10.0 0.00 0.00 0.00 40 1023.2
20260502191605 65 94 4.0 8.0 0.00 0.00 0.00 40 1023.1
20260502191020 64 94 4.0 8.0 0.00 0.00 0.00 39 1023.1
20260502190519 64 105 4.0 10.0 0.00 0.00 0.00 39 1023.0
20260502190111 65 86 5.0 10.0 0.00 0.00 0.00 39 1023.0
20260502185517 65 72 4.0 10.0 0.00 0.00 0.00 40 1023.0
20260502185018 65 85 3.0 10.0 0.00 0.00 0.00 42 1023.1
20260502184609 64 94 4.0 10.0 0.00 0.00 0.00 41 1023.0
20260502184017 63 63 3.0 8.0 0.00 0.00 0.00 42 1023.1
20260502183519 63 42 3.0 8.0 0.00 0.00 0.00 40 1023.1
20260502183112 62 110 2.0 10.0 0.00 0.00 0.00 43 1023.0
20260502182516 62 9 4.0 10.0 0.00 0.00 0.00 43 1023.0
20260502182017 62 347 1.0 5.0 0.00 0.00 0.00 40 1022.9
20260502181558 62 76 1.0 5.0 0.00 0.00 0.00 39 1022.9
20260502181018 63 262 1.0 8.0 0.00 0.00 0.00 39 1022.8
20260502180528 64 333 3.0 8.0 0.00 0.00 0.00 38 1022.9
20260502180113 63 317 2.0 8.0 0.00 0.00 0.00 39 1022.9
20260502164024 58 292 2.0 4.0 0.00 0.00 0.00 44 1022.5
20260502163526 58 207 1.0 4.0 0.00 0.00 0.00 44 1022.6
20260502163112 58 238 1.0 4.0 0.00 0.00 0.00 45 1022.6
20260502162524 59 208 0.0 5.0 0.00 0.00 0.00 45 1022.6
20260502162026 59 213 2.0 6.0 0.00 0.00 0.00 45 1022.6
20260502161625 59 211 1.0 7.0 0.00 0.00 0.00 48 1022.6
20260502161025 57 127 1.0 4.0 0.00 0.00 0.00 44 1022.4
20260502160527 56 242 1.0 4.0 0.00 0.00 0.00 47 1022.4
20260502152016 53 222 2.0 4.0 0.00 0.00 0.00 52 1022.2
20260502151544 53 239 1.0 3.0 0.00 0.00 0.00 52 1022.3
20260502151012 53 222 1.0 3.0 0.00 0.00 0.00 52 1022.2
20260502150515 53 221 1.0 4.0 0.00 0.00 0.00 52 1022.2
20260502130514 52 311 1.0 3.0 0.00 0.00 0.00 51 1021.7
20260502123517 50 281 2.0 4.0 0.00 0.00 0.00 55 1021.7
20260502123037 49 298 2.0 5.0 0.00 0.00 0.00 56 1021.7
20260502122514 49 272 2.0 5.0 0.00 0.00 0.00 56 1021.7
20260502122015 50 245 3.0 5.0 0.00 0.00 0.00 58 1021.8
20260502121549 52 183 0.0 4.0 0.00 0.00 0.00 53 1021.7
20260502121014 52 51 1.0 4.0 0.00 0.00 0.00 51 1021.6
20260502120514 52 59 2.0 7.0 0.00 0.00 0.00 51 1021.6
20260502115515 52 84 1.0 3.0 0.00 0.00 0.00 51 1022.0
20260502115015 52 206 0.0 1.0 0.00 0.00 0.00 50 1022.1
20260502114544 52 206 0.0 3.0 0.00 0.00 0.00 50 1022.1
20260502114016 52 206 0.0 4.0 0.00 0.00 0.00 51 1022.2
20260502113516 52 236 2.0 4.0 0.00 0.00 0.00 51 1022.2
20260502113043 52 244 3.0 4.0 0.00 0.00 0.00 51 1022.3
20260502112519 52 242 2.0 4.0 0.00 0.00 0.00 50 1022.2
20260502112019 53 250 2.0 3.0 0.00 0.00 0.00 50 1022.1
20260502111542 53 306 1.0 2.0 0.00 0.00 0.00 49 1022.1
20260502111020 53 306 0.0 2.0 0.00 0.00 0.00 49 1022.1
20260502110521 53 306 0.0 2.0 0.00 0.00 0.00 49 1021.9
20260502110039 53 306 0.0 3.0 0.00 0.00 0.00 49 1021.9
20260502105516 53 336 1.0 3.0 0.00 0.00 0.00 49 1021.9
20260502105015 53 326 0.0 2.0 0.00 0.00 0.00 49 1021.8
20260502104547 53 333 0.0 3.0 0.00 0.00 0.00 49 1021.8
20260502104016 53 334 0.0 3.0 0.00 0.00 0.00 49 1021.7
20260502103514 53 331 1.0 3.0 0.00 0.00 0.00 48 1021.8
20260502103046 52 300 0.0 3.0 0.00 0.00 0.00 49 1021.7
20260502102517 52 275 1.0 3.0 0.00 0.00 0.00 50 1021.8
20260502102023 53 300 1.0 2.0 0.00 0.00 0.00 49 1021.8
20260502101827 53 323 1.0 3.0 0.00 0.00 0.00 49 1021.6
20260502101027 53 338 1.0 5.0 0.00 0.00 0.00 48 1021.6
20260502100512 53 333 2.0 5.0 0.00 0.00 0.00 48 1021.5
20260502091015 54 317 1.0 2.0 0.00 0.00 0.00 47 1021.7
20260502090516 54 313 0.0 3.0 0.00 0.00 0.00 47 1021.8
20260502071017 53 276 2.0 3.0 0.00 0.00 0.00 49 1021.6
20260502070517 53 276 1.0 3.0 0.00 0.00 0.00 49 1021.5
20260502070101 53 276 2.0 3.0 0.00 0.00 0.00 49 1021.5
20260502065515 53 276 2.0 3.0 0.00 0.00 0.00 49 1021.5
20260502065015 53 276 1.0 3.0 0.00 0.00 0.00 49 1021.6
20260502064551 53 276 1.0 3.0 0.00 0.00 0.00 49 1021.5
20260502064015 53 278 1.0 3.0 0.00 0.00 0.00 49 1021.6
20260502063518 53 278 1.0 3.0 0.00 0.00 0.00 49 1021.5
20260502063043 53 275 1.0 3.0 0.00 0.00 0.00 48 1021.4
20260502062518 53 273 1.0 3.0 0.00 0.00 0.00 49 1021.6
20260502062023 53 271 2.0 3.0 0.00 0.00 0.00 49 1021.5
20260502061545 53 276 2.0 3.0 0.00 0.00 0.00 48 1021.6
20260502061014 53 272 2.0 3.0 0.00 0.00 0.00 47 1021.6
20260502060517 54 275 1.0 3.0 0.00 0.00 0.00 46 1021.5
20260502060324 54 277 1.0 2.0 0.00 0.00 0.00 45 1021.5
20260502055518 53 277 1.0 2.0 0.00 0.00 0.00 45 1021.4
20260502055019 53 277 1.0 3.0 0.00 0.00 0.00 47 1021.5
20260502054605 53 277 1.0 3.0 0.00 0.00 0.00 48 1021.4
20260502054015 53 261 1.0 3.0 0.00 0.00 0.00 48 1021.6
20260502053516 53 265 2.0 3.0 0.00 0.00 0.00 48 1021.7
20260502053119 53 263 2.0 3.0 0.00 0.00 0.00 47 1021.6
20260502052516 53 264 1.0 3.0 0.00 0.00 0.00 47 1021.7
20260502052016 53 274 2.0 3.0 0.00 0.00 0.00 46 1021.7
20260502051604 54 277 2.0 3.0 0.00 0.00 0.00 45 1021.7
20260502051013 54 270 1.0 2.0 0.00 0.00 0.00 45 1021.6
20260502050627 54 270 1.0 2.0 0.00 0.00 0.00 45 1021.5
20260502050621 54 270 0.0 2.0 0.00 0.00 0.00 45 1021.5
20260502045626 53 270 0.0 2.0 0.00 0.00 0.00 45 1021.5
20260502045031 53 270 1.0 2.0 0.00 0.00 0.00 46 1021.6
20260502044554 53 270 0.0 2.0 0.00 0.00 0.00 46 1021.5
20260502044018 53 270 1.0 3.0 0.00 0.00 0.00 47 1021.6
20260502043529 53 267 1.0 3.0 0.00 0.00 0.00 47 1021.6
20260502043047 53 254 2.0 3.0 0.00 0.00 0.00 46 1021.6
20260502042516 54 233 1.0 3.0 0.00 0.00 0.00 46 1021.6
20260502042028 54 203 1.0 2.0 0.00 0.00 0.00 46 1021.6
20260502041621 53 182 0.0 2.0 0.00 0.00 0.00 46 1021.6
20260502041017 53 182 0.0 2.0 0.00 0.00 0.00 46 1021.4
20260502040516 53 151 0.0 1.0 0.00 0.00 0.00 46 1021.4
20260502040050 53 150 0.0 1.0 0.00 0.00 0.00 46 1021.4
20260502035516 53 150 0.0 1.0 0.00 0.00 0.00 46 1021.4
20260502035208 53 150 0.0 0.0 0.00 0.00 0.00 46 1021.3
20260502034553 53 148 0.0 0.0 0.00 0.00 0.00 46 1021.1
20260502034023 53 148 0.0 0.0 0.00 0.00 0.00 46 1021.1
20260502033520 53 148 0.0 0.0 0.00 0.00 0.00 46 1021.1
20260502033106 53 148 0.0 1.0 0.00 0.00 0.00 47 1021.2